Location: Earls Croome
(52.0667°N, 2.2000°W)
Time: 13:23:43
(UTC+00:00)

Gbstr 26 Del rocket - Pass Details

Date: 17 November 2019
Orbit: 493 x 1264 km, 51.8° (Epoch: 16 December)

Event Time Altitude Azimuth Distance (km) Brightness Sun altitude
Exits shadow 05:51:35 22° 242° (WSW) 1,148 4.0 -15.1°
Maximum altitude 05:53:55 67° 164° (SSE) 540 2.8 -14.8°
Drops below altitude 10° 05:57:38 10° 82° (E) 1,704 6.5 -14.2°
Sets 05:59:51 0° 79° (E) 2,623 7.6 -13.9°
